This demonstration page uses our WeatherBlox Daily Observations layout. Learn more.

Left ArrowRight Arrow

Hourly Observations for November 10, 2015

Temp ( °F °C ) Dew Point ( °F °C ) Humidity (%) Winds ( mph kmh ) Pressure ( in mb ) Visibility ( mi km ) Precip ( " mm )
12:53 am 00:53 Clear 44 6.7 32 0 63 63 SSE 9 15 29.94 1014 10 16 0.00 0.00
1:53 am 01:53 Clear 44 6.7 32 0 63 63 SSE 9 15 29.92 1013 10 16 0.00 0.00
2:53 am 02:53 Clear 43 6.1 32 0 65 65 SSE 8 13 29.91 1013 10 16 0.00 0.00
3:53 am 03:53 Cloudy 43 6.1 33 0.6 68 68 SE 6 9 29.90 1012 10 16 0.00 0.00
4:53 am 04:53 Mostly Cloudy 44 6.7 34 1.1 68 68 SSE 8 13 29.88 1012 10 16 0.00 0.00
5:09 am 05:09 Cloudy 45 7.2 34 1.1 66 66 SSE 7 11 29.91 1013 10 16 0.00 0.00
5:53 am 05:53 Mostly Cloudy 43 6.1 34 1.1 71 71 SE 3 6 29.89 1012 10 16 0.00 0.00
6:44 am 06:44 Partly Cloudy 43 6 34 1 71 71 SSE 3 6 29.91 1013 10 16 0.00 0.00
6:53 am 06:53 Partly Cloudy 41 5 33 0.6 73 73 SE 6 9 29.89 1012 10 16 0.00 0.00
7:53 am 07:53 Sunny 41 5 33 0.6 73 73 SE 5 7 29.89 1012 10 16 0.00 0.00
8:29 am 08:29 Mostly Cloudy 44 6.7 35 1.7 71 71 SSE 7 11 29.91 1013 10 16 0.00 0.00
8:53 am 08:53 Cloudy 46 7.8 37 2.8 71 71 S 6 9 29.90 1013 10 16 0.00 0.00
9:53 am 09:53 Cloudy 50 10 38 3.3 63 63 S 8 13 29.88 1012 10 16 0.00 0.00
10:53 am 10:53 Cloudy 51 10.6 40 4.4 66 66 SW 5 7 29.88 1012 10 16 0.00 0.00
11:53 am 11:53 Cloudy 52 11.1 41 5 66 66 SW 5 7 29.85 1011 10 16 0.00 0.00
12:53 pm 12:53 Cloudy 54 12.2 43 6.1 67 67 VRB 5 7 29.83 1010 10 16 0.00 0.00
1:28 pm 13:28 Partly Cloudy 55 13 45 7 67 67 VRB 5 7 29.77 1008 10 16 0.00 0.00
1:53 pm 13:53 Sunny 57 13.9 45 7.2 64 64 S 5 7 29.80 1009 10 16 0.00 0.00
2:53 pm 14:53 Sunny 58 14.4 45 7.2 62 62 SE 5 7 29.78 1009 10 16 0.00 0.00
3:53 pm 15:53 Sunny 58 14.4 44 6.7 60 60 SSE 10 17 29.78 1008 10 16 0.00 0.00
4:53 pm 16:53 Sunny 56 13.3 44 6.7 65 65 SSE 8 13 29.77 1008 10 16 0.00 0.00
5:53 pm 17:53 Clear 51 10.6 42 5.6 71 71 SE 7 11 29.77 1008 10 16 0.00 0.00
6:53 pm 18:53 Clear 50 10 42 5.6 74 74 SSE 7 11 29.78 1008 10 16 0.00 0.00
7:53 pm 19:53 Clear 47 8.3 41 5 80 80 SSE 3 6 29.78 1008 10 16 0.00 0.00
8:53 pm 20:53 Clear 40 4.4 36 2.2 86 86 NE 3 6 29.76 1008 9 14 0.00 0.00
9:53 pm 21:53 Clear 37 2.8 36 2.2 96 96 ENE 5 7 29.75 1007 7 11 0.00 0.00
10:53 pm 22:53 Clear with Mist and Fog 36 2.2 34 1.1 93 93 ENE 3 6 29.73 1007 5 8 0.00 0.00
11:53 pm 23:53 Clear with Mist and Fog 36 2.2 35 1.7 97 97 E 5 7 29.71 1006 3 5 0.00 0.00

Powered by AerisWeather